Terminal Aerodrome Forecast
Issued by NWS Blacksburg, VA

Home | Current Version | Previous Version | Text Only | Print | Product List | Glossary On
Versions: 1 2 3 4 5 6 7 8 9 10 11 12 13 14 15 16 17 18 19 20 21 22 23 24
000
FTUS41 KRNK 251721
TAFDAN
TAF
KDAN 251721Z 2518/2618 22008KT P6SM SCT060
     FM260000 22003KT P6SM SCT050 SCT120
     FM260800 23002KT 5SM BR BKN250
     FM261300 27005KT P6SM SCT100=

USA.gov is the U.S. government's official web portal to all federal, state and local government web resources and services.